#Datum;Uhrzeit;WR;Pac;DaySum;Status;WR;Pac;DaySum;Status;Pdc1;Udc;Temp;WR;Pac;DaySum;Status;Pdc1;Udc;Temp;WR;Pac;DaySum;Status;Pdc1;Udc;Temp;WR;Pac;DaySum;Status;Pdc1;Pdc2;Udc1;Udc2;Temp;WR;Pac;DaySum;Status;Pdc1;Pdc2;Udc1;Udc2;Temp;WR;Pac;DaySum;Status;Pdc1;Udc;Temp;WR;Pac;DaySum;Status;Pdc1;Udc;Temp;WR;Pac;DaySum;Status;Pdc1;Udc;Temp
08.11.18;23:55:00;1;271;12701;0;2;0;3005;0;0;0;0;3;0;1835;0;0;0;0;4;0;2510;0;0;0;0;5;0;6488;0;0;0;0;0;0;6;0;4807;0;0;0;0;0;0;7;0;2954;0;0;0;0;8;0;2963;0;0;0;0;9;0;1560;0;0;0;0
08.11.18;23:50:00;1;272;12678;0;2;0;3005;0;0;0;0;3;0;1835;0;0;0;0;4;0;2510;0;0;0;0;5;0;6488;0;0;0;0;0;0;6;0;4807;0;0;0;0;0;0;7;0;2954;0;0;0;0;8;0;2963;0;0;0;0;9;0;1560;0;0;0;0
08.11.18;23:45:00;1;308;12655;0;2;0;3005;0;0;0;0;3;0;1835;0;0;0;0;4;0;2510;0;0;0;0;5;0;6488;0;0;0;0;0;0;6;0;4807;0;0;0;0;0;0;7;0;2954;0;0;0;0;8;0;2963;0;0;0;0;9;0;1560;0;0;0;0
08.11.18;23:40:00;1;312;12629;0;2;0;3005;0;0;0;0;3;0;1835;0;0;0;0;4;0;2510;0;0;0;0;5;0;6488;0;0;0;0;0;0;6;0;4807;0;0;0;0;0;0;7;0;2954;0;0;0;0;8;0;2963;0;0;0;0;9;0;1560;0;0;0;0
08.11.18;23:35:00;1;325;12603;0;2;0;3005;0;0;0;0;3;0;1835;0;0;0;0;4;0;2510;0;0;0;0;5;0;6488;0;0;0;0;0;0;6;0;4807;0;0;0;0;0;0;7;0;2954;0;0;0;0;8;0;2963;0;0;0;0;9;0;1560;0;0;0;0
08.11.18;23:30:00;1;279;12577;0;2;0;3005;0;0;0;0;3;0;1835;0;0;0;0;4;0;2510;0;0;0;0;5;0;6488;0;0;0;0;0;0;6;0;4807;0;0;0;0;0;0;7;0;2954;0;0;0;0;8;0;2963;0;0;0;0;9;0;1560;0;0;0;0
08.11.18;23:25:00;1;209;12556;0;2;0;3005;0;0;0;0;3;0;1835;0;0;0;0;4;0;2510;0;0;0;0;5;0;6488;0;0;0;0;0;0;6;0;4807;0;0;0;0;0;0;7;0;2954;0;0;0;0;8;0;2963;0;0;0;0;9;0;1560;0;0;0;0
08.11.18;23:20:00;1;221;12539;0;2;0;3005;0;0;0;0;3;0;1835;0;0;0;0;4;0;2510;0;0;0;0;5;0;6488;0;0;0;0;0;0;6;0;4807;0;0;0;0;0;0;7;0;2954;0;0;0;0;8;0;2963;0;0;0;0;9;0;1560;0;0;0;0
08.11.18;23:15:00;1;235;12520;0;2;0;3005;0;0;0;0;3;0;1835;0;0;0;0;4;0;2510;0;0;0;0;5;0;6488;0;0;0;0;0;0;6;0;4807;0;0;0;0;0;0;7;0;2954;0;0;0;0;8;0;2963;0;0;0;0;9;0;1560;0;0;0;0
08.11.18;23:10:00;1;211;12500;0;2;0;3005;0;0;0;0;3;0;1835;0;0;0;0;4;0;2510;0;0;0;0;5;0;6488;0;0;0;0;0;0;6;0;4807;0;0;0;0;0;0;7;0;2954;0;0;0;0;8;0;2963;0;0;0;0;9;0;1560;0;0;0;0
08.11.18;23:05:00;1;212;12483;0;2;0;3005;0;0;0;0;3;0;1835;0;0;0;0;4;0;2510;0;0;0;0;5;0;6488;0;0;0;0;0;0;6;0;4807;0;0;0;0;0;0;7;0;2954;0;0;0;0;8;0;2963;0;0;0;0;9;0;1560;0;0;0;0
08.11.18;23:00:00;1;213;12465;0;2;0;3005;0;0;0;0;3;0;1835;0;0;0;0;4;0;2510;0;0;0;0;5;0;6488;0;0;0;0;0;0;6;0;4807;0;0;0;0;0;0;7;0;2954;0;0;0;0;8;0;2963;0;0;0;0;9;0;1560;0;0;0;0
08.11.18;22:55:00;1;212;12447;0;2;0;3005;0;0;0;0;3;0;1835;0;0;0;0;4;0;2510;0;0;0;0;5;0;6488;2;0;0;0;0;0;6;0;4807;2;0;0;0;0;0;7;0;2954;0;0;0;0;8;0;2963;0;0;0;0;9;0;1560;0;0;0;0
08.11.18;22:50:00;1;253;12429;0;2;0;3005;0;0;0;0;3;0;1835;0;0;0;0;4;0;2510;0;0;0;0;5;0;6488;2;0;0;0;0;0;6;0;4807;2;0;0;0;0;0;7;0;2954;0;0;0;0;8;0;2963;0;0;0;0;9;0;1560;0;0;0;0
08.11.18;22:45:00;1;254;12408;0;2;0;3005;0;0;0;0;3;0;1835;0;0;0;0;4;0;2510;0;0;0;0;5;0;6488;2;0;0;0;0;0;6;0;4807;2;0;0;0;0;0;7;0;2954;0;0;0;0;8;0;2963;0;0;0;0;9;0;1560;0;0;0;0
08.11.18;22:40:00;1;256;12387;0;2;0;3005;0;0;0;0;3;0;1835;0;0;0;0;4;0;2510;0;0;0;0;5;0;6488;2;0;0;0;0;0;6;0;4807;2;0;0;0;0;0;7;0;2954;0;0;0;0;8;0;2963;0;0;0;0;9;0;1560;0;0;0;0
08.11.18;22:35:00;1;250;12365;0;2;0;3005;0;0;0;0;3;0;1835;0;0;0;0;4;0;2510;0;0;0;0;5;0;6488;2;0;0;0;0;0;6;0;4807;2;0;0;0;0;0;7;0;2954;0;0;0;0;8;0;2963;0;0;0;0;9;0;1560;0;0;0;0
08.11.18;22:30:00;1;258;12344;0;2;0;3005;0;0;0;0;3;0;1835;0;0;0;0;4;0;2510;0;0;0;0;5;0;6488;2;0;0;0;0;0;6;0;4807;2;0;0;0;0;0;7;0;2954;0;0;0;0;8;0;2963;0;0;0;0;9;0;1560;0;0;0;0
08.11.18;22:25:00;1;260;12322;0;2;0;3005;0;0;0;0;3;0;1835;0;0;0;0;4;0;2510;0;0;0;0;5;0;6488;2;0;0;0;0;0;6;0;4807;2;0;0;0;0;0;7;0;2954;0;0;0;0;8;0;2963;0;0;0;0;9;0;1560;0;0;0;0
08.11.18;22:20:00;1;260;12301;0;2;0;3005;0;0;0;0;3;0;1835;0;0;0;0;4;0;2510;0;0;0;0;5;0;6488;2;0;0;0;0;0;6;0;4807;2;0;0;0;0;0;7;0;2954;0;0;0;0;8;0;2963;0;0;0;0;9;0;1560;0;0;0;0
08.11.18;22:15:00;1;261;12279;0;2;0;3005;0;0;0;0;3;0;1835;0;0;0;0;4;0;2510;0;0;0;0;5;0;6488;2;0;0;0;0;0;6;0;4807;2;0;0;0;0;0;7;0;2954;0;0;0;0;8;0;2963;0;0;0;0;9;0;1560;0;0;0;0
08.11.18;22:10:00;1;268;12257;0;2;0;3005;0;0;0;0;3;0;1835;0;0;0;0;4;0;2510;0;0;0;0;5;0;6488;2;0;0;0;0;0;6;0;4807;2;0;0;0;0;0;7;0;2954;0;0;0;0;8;0;2963;0;0;0;0;9;0;1560;0;0;0;0
08.11.18;22:05:00;1;264;12235;0;2;0;3005;0;0;0;0;3;0;1835;0;0;0;0;4;0;2510;0;0;0;0;5;0;6488;2;0;0;0;0;0;6;0;4807;2;0;0;0;0;0;7;0;2954;0;0;0;0;8;0;2963;0;0;0;0;9;0;1560;0;0;0;0
08.11.18;22:00:00;1;249;12213;0;2;0;3005;0;0;0;0;3;0;1835;0;0;0;0;4;0;2510;0;0;0;0;5;0;6488;2;0;0;0;0;0;6;0;4807;2;0;0;0;0;0;7;0;2954;0;0;0;0;8;0;2963;0;0;0;0;9;0;1560;0;0;0;0
08.11.18;21:55:00;1;286;12191;0;2;0;3005;0;0;0;0;3;0;1835;0;0;0;0;4;0;2510;0;0;0;0;5;0;6488;2;0;0;0;0;0;6;0;4807;2;0;0;0;0;0;7;0;2954;0;0;0;0;8;0;2963;0;0;0;0;9;0;1560;0;0;0;0
08.11.18;21:50:00;1;407;12168;0;2;0;3005;0;0;0;0;3;0;1835;0;0;0;0;4;0;2510;0;0;0;0;5;0;6488;2;0;0;0;0;0;6;0;4807;2;0;0;0;0;0;7;0;2954;0;0;0;0;8;0;2963;0;0;0;0;9;0;1560;0;0;0;0
08.11.18;21:45:00;1;358;12134;0;2;0;3005;0;0;0;0;3;0;1835;0;0;0;0;4;0;2510;0;0;0;0;5;0;6488;2;0;0;0;0;0;6;0;4807;2;0;0;0;0;0;7;0;2954;0;0;0;0;8;0;2963;0;0;0;0;9;0;1560;0;0;0;0
08.11.18;21:40:00;1;480;12104;0;2;0;3005;0;0;0;0;3;0;1835;0;0;0;0;4;0;2510;0;0;0;0;5;0;6488;2;0;0;0;0;0;6;0;4807;2;0;0;0;0;0;7;0;2954;0;0;0;0;8;0;2963;0;0;0;0;9;0;1560;0;0;0;0
08.11.18;21:35:00;1;449;12065;0;2;0;3005;0;0;0;0;3;0;1835;0;0;0;0;4;0;2510;0;0;0;0;5;0;6488;2;0;0;0;0;0;6;0;4807;2;0;0;0;0;0;7;0;2954;0;0;0;0;8;0;2963;0;0;0;0;9;0;1560;0;0;0;0
08.11.18;21:30:00;1;421;12028;0;2;0;3005;0;0;0;0;3;0;1835;0;0;0;0;4;0;2510;0;0;0;0;5;0;6488;2;0;0;0;0;0;6;0;4807;2;0;0;0;0;0;7;0;2954;0;0;0;0;8;0;2963;0;0;0;0;9;0;1560;0;0;0;0
08.11.18;21:25:00;1;419;11992;0;2;0;3005;0;0;0;0;3;0;1835;0;0;0;0;4;0;2510;0;0;0;0;5;0;6488;2;0;0;0;0;0;6;0;4807;2;0;0;0;0;0;7;0;2954;0;0;0;0;8;0;2963;0;0;0;0;9;0;1560;0;0;0;0
08.11.18;21:20:00;1;420;11957;0;2;0;3005;0;0;0;0;3;0;1835;0;0;0;0;4;0;2510;0;0;0;0;5;0;6488;2;0;0;0;0;0;6;0;4807;2;0;0;0;0;0;7;0;2954;0;0;0;0;8;0;2963;0;0;0;0;9;0;1560;0;0;0;0
08.11.18;21:15:00;1;422;11922;0;2;0;3005;0;0;0;0;3;0;1835;0;0;0;0;4;0;2510;0;0;0;0;5;0;6488;2;0;0;0;0;0;6;0;4807;2;0;0;0;0;0;7;0;2954;0;0;0;0;8;0;2963;0;0;0;0;9;0;1560;0;0;0;0
08.11.18;21:10:00;1;359;11887;0;2;0;3005;0;0;0;0;3;0;1835;0;0;0;0;4;0;2510;0;0;0;0;5;0;6488;2;0;0;0;0;0;6;0;4807;2;0;0;0;0;0;7;0;2954;0;0;0;0;8;0;2963;0;0;0;0;9;0;1560;0;0;0;0
08.11.18;21:05:00;1;368;11856;0;2;0;3005;0;0;0;0;3;0;1835;0;0;0;0;4;0;2510;0;0;0;0;5;0;6488;2;0;0;0;0;0;6;0;4807;2;0;0;0;0;0;7;0;2954;0;0;0;0;8;0;2963;0;0;0;0;9;0;1560;0;0;0;0
08.11.18;21:00:00;1;498;11824;0;2;0;3005;0;0;0;0;3;0;1835;0;0;0;0;4;0;2510;0;0;0;0;5;0;6488;2;0;0;0;0;0;6;0;4807;2;0;0;0;0;0;7;0;2954;0;0;0;0;8;0;2963;0;0;0;0;9;0;1560;0;0;0;0
08.11.18;20:55:00;1;520;11782;0;2;0;3005;0;0;0;0;3;0;1835;0;0;0;0;4;0;2510;0;0;0;0;5;0;6488;2;0;0;0;0;0;6;0;4807;2;0;0;0;0;0;7;0;2954;0;0;0;0;8;0;2963;0;0;0;0;9;0;1560;0;0;0;0
08.11.18;20:50:00;1;648;11738;0;2;0;3005;0;0;0;0;3;0;1835;0;0;0;0;4;0;2510;0;0;0;0;5;0;6488;2;0;0;0;0;0;6;0;4807;2;0;0;0;0;0;7;0;2954;0;0;0;0;8;0;2963;0;0;0;0;9;0;1560;0;0;0;0
08.11.18;20:45:00;1;624;11684;0;2;0;3005;0;0;0;0;3;0;1835;0;0;0;0;4;0;2510;0;0;0;0;5;0;6488;2;0;0;0;0;0;6;0;4807;2;0;0;0;0;0;7;0;2954;0;0;0;0;8;0;2963;0;0;0;0;9;0;1560;0;0;0;0
08.11.18;20:40:00;1;607;11632;0;2;0;3005;0;0;0;0;3;0;1835;0;0;0;0;4;0;2510;0;0;0;0;5;0;6488;2;0;0;0;0;0;6;0;4807;2;0;0;0;0;0;7;0;2954;0;0;0;0;8;0;2963;0;0;0;0;9;0;1560;0;0;0;0
08.11.18;20:35:00;1;605;11581;0;2;0;3005;0;0;0;0;3;0;1835;0;0;0;0;4;0;2510;0;0;0;0;5;0;6488;2;0;0;0;0;0;6;0;4807;2;0;0;0;0;0;7;0;2954;0;0;0;0;8;0;2963;0;0;0;0;9;0;1560;0;0;0;0
08.11.18;20:30:00;1;642;11531;0;2;0;3005;0;0;0;0;3;0;1835;0;0;0;0;4;0;2510;0;0;0;0;5;0;6488;2;0;0;0;0;0;6;0;4807;2;0;0;0;0;0;7;0;2954;0;0;0;0;8;0;2963;0;0;0;0;9;0;1560;0;0;0;0
08.11.18;20:25:00;1;801;11476;0;2;0;3005;0;0;0;0;3;0;1835;0;0;0;0;4;0;2510;0;0;0;0;5;0;6488;2;0;0;0;0;0;6;0;4807;2;0;0;0;0;0;7;0;2954;0;0;0;0;8;0;2963;0;0;0;0;9;0;1560;0;0;0;0
08.11.18;20:20:00;1;784;11405;0;2;0;3005;0;0;0;0;3;0;1835;0;0;0;0;4;0;2510;0;0;0;0;5;0;6488;2;0;0;0;0;0;6;0;4807;2;0;0;0;0;0;7;0;2954;0;0;0;0;8;0;2963;0;0;0;0;9;0;1560;0;0;0;0
08.11.18;20:15:00;1;823;11338;0;2;0;3005;0;0;0;0;3;0;1835;0;0;0;0;4;0;2510;0;0;0;0;5;0;6488;2;0;0;0;0;0;6;0;4807;2;0;0;0;0;0;7;0;2954;0;0;0;0;8;0;2963;0;0;0;0;9;0;1560;0;0;0;0
08.11.18;20:10:00;1;836;11269;0;2;0;3005;0;0;0;0;3;0;1835;0;0;0;0;4;0;2510;0;0;0;0;5;0;6488;2;0;0;0;0;0;6;0;4807;2;0;0;0;0;0;7;0;2954;0;0;0;0;8;0;2963;0;0;0;0;9;0;1560;0;0;0;0
08.11.18;20:05:00;1;948;11199;0;2;0;3005;0;0;0;0;3;0;1835;0;0;0;0;4;0;2510;0;0;0;0;5;0;6488;2;0;0;0;0;0;6;0;4807;2;0;0;0;0;0;7;0;2954;0;0;0;0;8;0;2963;0;0;0;0;9;0;1560;0;0;0;0
08.11.18;20:00:00;1;1145;11116;0;2;0;3005;0;0;0;0;3;0;1835;0;0;0;0;4;0;2510;0;0;0;0;5;0;6488;2;0;0;0;0;0;6;0;4807;2;0;0;0;0;0;7;0;2954;0;0;0;0;8;0;2963;0;0;0;0;9;0;1560;0;0;0;0
08.11.18;19:55:00;1;923;11023;0;2;0;3005;0;0;0;0;3;0;1835;0;0;0;0;4;0;2510;0;0;0;0;5;0;6488;2;0;0;0;0;0;6;0;4807;2;0;0;0;0;0;7;0;2954;0;0;0;0;8;0;2963;0;0;0;0;9;0;1560;0;0;0;0
08.11.18;19:50:00;1;901;10946;0;2;0;3005;0;0;0;0;3;0;1835;0;0;0;0;4;0;2510;0;0;0;0;5;0;6488;2;0;0;0;0;0;6;0;4807;2;0;0;0;0;0;7;0;2954;0;0;0;0;8;0;2963;0;0;0;0;9;0;1560;0;0;0;0
08.11.18;19:45:00;1;893;10870;0;2;0;3005;0;0;0;0;3;0;1835;0;0;0;0;4;0;2510;0;0;0;0;5;0;6488;2;0;0;0;0;0;6;0;4807;2;0;0;0;0;0;7;0;2954;0;0;0;0;8;0;2963;0;0;0;0;9;0;1560;0;0;0;0
08.11.18;19:40:00;1;944;10796;0;2;0;3005;0;0;0;0;3;0;1835;0;0;0;0;4;0;2510;0;0;0;0;5;0;6488;2;0;0;0;0;0;6;0;4807;2;0;0;0;0;0;7;0;2954;0;0;0;0;8;0;2963;0;0;0;0;9;0;1560;0;0;0;0
08.11.18;19:35:00;1;947;10717;0;2;0;3005;0;0;0;0;3;0;1835;0;0;0;0;4;0;2510;0;0;0;0;5;0;6488;2;0;0;0;0;0;6;0;4807;2;0;0;0;0;0;7;0;2954;0;0;0;0;8;0;2963;0;0;0;0;9;0;1560;0;0;0;0
08.11.18;19:30:00;1;1310;10637;0;2;0;3005;0;0;0;0;3;0;1835;0;0;0;0;4;0;2510;0;0;0;0;5;0;6488;2;0;0;0;0;0;6;0;4807;2;0;0;0;0;0;7;0;2954;0;0;0;0;8;0;2963;0;0;0;0;9;0;1560;0;0;0;0
08.11.18;19:25:00;1;718;10539;0;2;0;3005;0;0;0;0;3;0;1835;0;0;0;0;4;0;2510;0;0;0;0;5;0;6488;2;0;0;0;0;0;6;0;4807;2;0;0;0;0;0;7;0;2954;0;0;0;0;8;0;2963;0;0;0;0;9;0;1560;0;0;0;0
08.11.18;19:20:00;1;663;10478;0;2;0;3005;0;0;0;0;3;0;1835;0;0;0;0;4;0;2510;0;0;0;0;5;0;6488;2;0;0;0;0;0;6;0;4807;2;0;0;0;0;0;7;0;2954;0;0;0;0;8;0;2963;0;0;0;0;9;0;1560;0;0;0;0
08.11.18;19:15:00;1;686;10423;0;2;0;3005;0;0;0;0;3;0;1835;0;0;0;0;4;0;2510;0;0;0;0;5;0;6488;2;0;0;0;0;0;6;0;4807;2;0;0;0;0;0;7;0;2954;0;0;0;0;8;0;2963;0;0;0;0;9;0;1560;0;0;0;0
08.11.18;19:10:00;1;716;10365;0;2;0;3005;0;0;0;0;3;0;1835;0;0;0;0;4;0;2510;0;0;0;0;5;0;6488;2;0;0;0;0;0;6;0;4807;2;0;0;0;0;0;7;0;2954;0;0;0;0;8;0;2963;0;0;0;0;9;0;1560;0;0;0;0
08.11.18;19:05:00;1;729;10306;0;2;0;3005;0;0;0;0;3;0;1835;0;0;0;0;4;0;2510;0;0;0;0;5;0;6488;2;0;0;0;0;0;6;0;4807;2;0;0;0;0;0;7;0;2954;0;0;0;0;8;0;2963;0;0;0;0;9;0;1560;0;0;0;0
08.11.18;19:00:00;1;710;10245;0;2;0;3005;0;0;0;0;3;0;1835;0;0;0;0;4;0;2510;0;0;0;0;5;0;6488;2;0;0;0;0;0;6;0;4807;2;0;0;0;0;0;7;0;2954;0;0;0;0;8;0;2963;0;0;0;0;9;0;1560;0;0;0;0
08.11.18;18:55:00;1;651;10186;0;2;0;3005;0;0;0;0;3;0;1835;0;0;0;0;4;0;2510;0;0;0;0;5;0;6488;2;0;0;0;0;0;6;0;4807;2;0;0;0;0;0;7;0;2954;0;0;0;0;8;0;2963;0;0;0;0;9;0;1560;0;0;0;0
08.11.18;18:50:00;1;674;10131;0;2;0;3005;0;0;0;0;3;0;1835;0;0;0;0;4;0;2510;0;0;0;0;5;0;6488;2;0;0;0;0;0;6;0;4807;2;0;0;0;0;0;7;0;2954;0;0;0;0;8;0;2963;0;0;0;0;9;0;1560;0;0;0;0
08.11.18;18:45:00;1;677;10075;0;2;0;3005;0;0;0;0;3;0;1835;0;0;0;0;4;0;2510;0;0;0;0;5;0;6488;2;0;0;0;0;0;6;0;4807;2;0;0;0;0;0;7;0;2954;0;0;0;0;8;0;2963;0;0;0;0;9;0;1560;0;0;0;0
08.11.18;18:40:00;1;671;10019;0;2;0;3005;0;0;0;0;3;0;1835;0;0;0;0;4;0;2510;0;0;0;0;5;0;6488;2;0;0;0;0;0;6;0;4807;2;0;0;0;0;0;7;0;2954;0;0;0;0;8;0;2963;0;0;0;0;9;0;1560;0;0;0;0
08.11.18;18:35:00;1;832;9963;0;2;0;3005;0;0;0;0;3;0;1835;0;0;0;0;4;0;2510;0;0;0;0;5;0;6488;2;0;0;0;0;0;6;0;4807;2;0;0;0;0;0;7;0;2954;0;0;0;0;8;0;2963;0;0;0;0;9;0;1560;0;0;0;0
08.11.18;18:30:00;1;1169;9879;0;2;0;3005;0;0;0;0;3;0;1835;0;0;0;0;4;0;2510;0;0;0;0;5;0;6488;2;0;0;0;0;0;6;0;4807;2;0;0;0;0;0;7;0;2954;0;0;0;0;8;0;2963;0;0;0;0;9;0;1560;0;0;0;0
08.11.18;18:25:00;1;678;9793;0;2;0;3005;0;0;0;0;3;0;1835;0;0;0;0;4;0;2510;0;0;0;0;5;0;6488;2;0;0;0;0;0;6;0;4807;2;0;0;0;0;0;7;0;2954;0;0;0;0;8;0;2963;0;0;0;0;9;0;1560;0;0;0;0
08.11.18;18:20:00;1;714;9737;0;2;0;3005;0;0;0;0;3;0;1835;0;0;0;0;4;0;2510;0;0;0;0;5;0;6488;2;0;0;0;0;0;6;0;4807;2;0;0;0;0;0;7;0;2954;0;0;0;0;8;0;2963;0;0;0;0;9;0;1560;0;0;0;0
08.11.18;18:15:00;1;712;9676;0;2;0;3005;0;0;0;0;3;0;1835;0;0;0;0;4;0;2510;0;0;0;0;5;0;6488;2;0;0;0;0;0;6;0;4807;2;0;0;0;0;0;7;0;2954;0;0;0;0;8;0;2963;0;0;0;0;9;0;1560;0;0;0;0
08.11.18;18:10:00;1;720;9615;0;2;0;3005;0;0;0;0;3;0;1835;0;0;0;0;4;0;2510;0;0;0;0;5;0;6488;2;0;0;0;0;0;6;0;4807;2;0;0;0;0;0;7;0;2954;0;0;0;0;8;0;2963;0;0;0;0;9;0;1560;0;0;0;0
08.11.18;18:05:00;1;933;9554;0;2;0;3005;0;0;0;0;3;0;1835;0;0;0;0;4;0;2510;0;0;0;0;5;0;6488;2;0;0;0;0;0;6;0;4807;2;0;0;0;0;0;7;0;2954;0;0;0;0;8;0;2963;0;0;0;0;9;0;1560;0;0;0;0
08.11.18;18:00:00;1;904;9477;0;2;0;3005;0;0;0;0;3;0;1835;0;0;0;0;4;0;2510;0;0;0;0;5;0;6488;2;0;0;0;0;0;6;0;4807;2;0;0;0;0;0;7;0;2954;0;0;0;0;8;0;2963;0;0;0;0;9;0;1560;0;0;0;0
08.11.18;17:55:00;1;663;9403;0;2;0;3005;0;0;0;0;3;0;1835;0;0;0;0;4;0;2510;0;0;0;0;5;0;6488;2;0;0;0;0;0;6;0;4807;2;0;0;0;0;0;7;0;2954;0;0;0;0;8;0;2963;0;0;0;0;9;0;1560;0;0;0;0
08.11.18;17:50:00;1;616;9348;0;2;0;3005;0;0;0;0;3;0;1835;0;0;0;0;4;0;2510;0;0;0;0;5;0;6488;2;0;0;0;0;0;6;0;4807;2;0;0;0;0;0;7;0;2954;0;0;0;0;8;0;2963;0;0;0;0;9;0;1560;0;0;0;0
08.11.18;17:45:00;1;619;9296;0;2;0;3005;0;0;0;0;3;0;1835;0;0;0;0;4;0;2510;0;0;0;0;5;0;6488;2;0;0;0;0;0;6;0;4807;2;0;0;0;0;0;7;0;2954;0;0;0;0;8;0;2963;0;0;0;0;9;0;1560;0;0;0;0
08.11.18;17:40:00;1;622;9245;0;2;0;3005;0;0;0;0;3;0;1835;0;0;0;0;4;0;2510;0;0;0;0;5;0;6488;2;0;0;0;0;0;6;0;4807;2;0;0;0;0;0;7;0;2954;0;0;0;0;8;0;2963;0;0;0;0;9;0;1560;0;0;0;0
08.11.18;17:35:00;1;609;9193;0;2;0;3005;0;0;0;0;3;0;1835;0;0;0;0;4;0;2510;0;0;0;0;5;0;6488;2;0;0;0;0;0;6;0;4807;2;0;0;0;0;0;7;0;2954;0;0;0;0;8;0;2963;0;0;0;0;9;0;1560;0;0;0;0
08.11.18;17:30:00;1;643;9143;0;2;0;3005;0;0;0;0;3;0;1835;0;0;0;0;4;0;2510;0;0;0;0;5;0;6488;2;0;0;0;0;0;6;0;4807;2;0;0;0;0;0;7;0;2954;0;0;0;0;8;0;2963;0;0;0;0;9;0;1560;0;0;0;0
08.11.18;17:25:00;1;723;9090;0;2;0;3005;0;0;0;0;3;0;1835;0;0;0;0;4;0;2510;0;0;0;0;5;0;6488;2;0;0;0;0;0;6;0;4807;2;0;0;0;0;0;7;0;2954;0;0;0;0;8;0;2963;0;0;0;0;9;0;1560;0;0;0;0
08.11.18;17:20:00;1;730;9029;0;2;0;3005;0;0;0;0;3;0;1835;0;0;0;0;4;0;2510;0;0;0;0;5;0;6488;2;0;0;0;0;0;6;0;4807;2;0;0;0;0;0;7;0;2954;0;0;0;0;8;0;2963;0;0;0;0;9;0;1560;0;0;0;0
08.11.18;17:15:00;1;754;8968;0;2;0;3005;0;0;0;0;3;0;1835;0;0;0;0;4;0;2510;0;0;0;0;5;0;6488;2;0;0;0;0;0;6;0;4807;2;0;0;0;0;0;7;0;2954;0;0;0;0;8;0;2963;0;0;0;0;9;0;1560;0;0;0;0
08.11.18;17:10:00;1;773;8905;0;2;0;3005;0;0;0;0;3;0;1835;0;0;0;0;4;0;2510;0;0;0;0;5;0;6488;2;0;0;0;0;0;6;0;4807;2;0;0;0;0;0;7;0;2954;0;0;0;0;8;0;2963;0;0;0;0;9;0;1560;0;0;0;0
08.11.18;17:05:00;1;456;8856;0;2;0;3005;0;0;0;0;3;0;1835;0;0;0;0;4;0;2510;0;0;0;0;5;0;6488;2;0;0;0;0;0;6;0;4807;2;0;0;0;0;0;7;0;2954;0;0;0;0;8;0;2963;0;0;0;0;9;0;1560;0;0;0;0
08.11.18;17:00:00;1;452;8818;0;2;0;3005;0;0;0;0;3;0;1835;0;0;0;0;4;0;2510;0;0;0;0;5;0;6488;2;0;0;0;0;0;6;0;4807;2;0;0;0;0;0;7;0;2954;0;0;0;0;8;0;2963;0;0;0;0;9;0;1560;0;0;0;0
08.11.18;16:55:00;1;472;8780;0;2;0;3005;0;0;0;0;3;0;1835;0;0;0;0;4;0;2510;0;0;0;0;5;0;6488;2;0;0;0;0;0;6;0;4807;2;0;0;0;0;0;7;0;2954;0;0;0;0;8;0;2963;0;0;0;0;9;0;1560;0;0;0;0
08.11.18;16:50:00;1;446;8741;0;2;0;3005;0;0;128;8;3;0;1835;2;0;279;20;4;0;2510;0;0;9;2;5;0;6488;2;0;0;0;0;0;6;0;4807;0;0;0;0;0;0;7;0;2954;0;0;0;0;8;0;2963;0;0;0;0;9;0;1560;0;0;0;0
08.11.18;16:45:00;1;400;8707;0;2;0;3005;6;0;298;18;3;0;1835;6;0;345;20;4;0;2510;2;0;86;17;5;0;6488;2;0;2;71;70;11;6;0;4807;2;0;0;0;0;0;7;0;2954;0;0;0;0;8;0;2963;0;0;0;0;9;0;1560;0;0;0;0
08.11.18;16:40:00;1;400;8673;0;2;0;3005;6;0;332;18;3;0;1835;6;0;395;21;4;0;2510;1;0;124;17;5;0;6488;1;0;1;340;339;27;6;0;4807;1;9;0;215;399;26;7;0;2954;0;0;107;8;8;0;2963;0;0;104;8;9;0;1560;0;0;0;0
08.11.18;16:35:00;1;414;8640;0;2;0;3005;6;0;357;18;3;0;1835;6;1;424;21;4;0;2510;1;0;160;17;5;0;6488;26;0;1;392;432;28;6;0;4807;23;9;1;477;238;27;7;0;2954;0;0;164;10;8;0;2963;0;0;0;0;9;0;1560;6;0;275;13
08.11.18;16:30:00;1;440;8605;0;2;0;3005;6;0;374;18;3;1;1835;6;2;448;21;4;0;2510;1;0;189;17;5;0;6488;26;0;0;406;610;28;6;0;4807;23;8;0;181;544;27;7;0;2954;0;0;216;12;8;0;2963;0;0;0;0;9;0;1560;0;0;155;6
08.11.18;16:25:00;1;452;8568;0;2;0;3005;6;0;388;18;3;1;1835;6;3;468;21;4;0;2510;1;0;213;18;5;7;6488;1;0;3;410;643;28;6;0;4807;23;11;0;261;564;28;7;2;2954;0;0;224;12;8;0;2963;0;0;319;16;9;0;1560;0;0;342;13
08.11.18;16:20:00;1;443;8530;0;2;0;3005;6;0;399;19;3;1;1834;6;3;477;21;4;0;2510;1;0;208;18;5;58;6487;1;5;12;380;607;29;6;19;4807;1;24;12;536;513;28;7;0;2954;6;2;242;12;8;3;2963;6;4;321;16;9;0;1560;0;0;0;0
08.11.18;16:15:00;1;411;8493;0;2;0;3005;6;0;406;19;3;0;1834;3;9;474;21;4;0;2510;3;0;215;18;5;85;6482;4;16;26;370;591;29;6;58;4805;4;36;19;456;425;29;7;0;2954;0;1;354;17;8;0;2963;6;1;434;21;9;1;1560;6;1;391;14
08.11.18;16:10:00;1;2241;8449;0;2;0;3005;6;0;406;19;3;1;1834;6;11;461;22;4;0;2510;3;0;221;18;5;86;6475;4;16;26;370;591;29;6;57;4800;4;29;20;456;425;29;7;0;2954;6;2;433;21;8;0;2963;6;2;348;16;9;1;1559;0;2;384;13
08.11.18;16:05:00;1;416;8287;0;2;4;3005;6;10;403;19;3;2;1834;6;7;502;22;4;1;2510;3;1;217;19;5;112;6468;4;34;44;370;591;29;6;74;4795;4;36;23;456;425;29;7;0;2954;6;0;478;22;8;0;2963;0;5;361;16;9;2;1559;6;2;179;6
08.11.18;16:00:00;1;391;8252;0;2;0;3005;6;0;408;20;3;0;1834;6;5;495;22;4;0;2510;3;0;214;19;5;93;6458;4;19;31;370;591;29;6;61;4789;4;40;26;456;425;29;7;0;2954;4;4;437;22;8;0;2963;0;0;186;8;9;0;1559;0;0;201;6
08.11.18;15:55:00;1;374;8220;0;2;43;3005;6;65;369;20;3;6;1834;6;15;495;22;4;12;2510;3;13;199;19;5;155;6450;4;56;62;370;591;29;6;105;4783;4;62;48;456;425;29;7;9;2954;3;17;123;7;8;1;2963;3;7;227;11;9;2;1559;6;5;434;14
08.11.18;15:50:00;1;373;8188;0;2;55;3001;4;83;353;21;3;0;1833;6;0;547;22;4;12;2509;3;13;198;19;5;168;6437;4;64;70;370;591;29;6;112;4774;4;55;40;456;425;29;7;18;2952;6;26;440;22;8;15;2963;6;26;444;22;9;6;1558;6;13;492;18
08.11.18;15:45:00;1;372;8157;0;2;86;2996;4;115;365;21;3;16;1833;3;29;502;22;4;47;2508;3;48;198;19;5;227;6423;4;100;99;370;591;29;6;152;4764;4;84;69;456;425;29;7;77;2950;4;105;417;22;8;49;2962;4;78;358;17;9;14;1558;6;23;508;18
08.11.18;15:40:00;1;387;8126;0;2;107;2989;4;136;366;21;3;24;1832;6;38;531;23;4;65;2504;3;68;198;19;5;265;6404;4;117;116;370;591;29;6;175;4752;4;110;89;456;425;29;7;75;2944;4;113;452;22;8;34;2951;0;50;173;8;9;10;1557;6;13;316;10
08.11.18;15:35:00;1;522;8093;0;2;105;2980;4;133;356;21;3;34;1830;4;55;495;23;4;64;2499;3;66;198;19;5;273;6381;4;128;122;370;591;29;6;183;4737;4;126;100;456;425;29;7;85;2938;4;131;437;22;8;72;2948;4;103;356;17;9;0;1556;0;0;345;10
08.11.18;15:30:00;1;688;8047;0;2;111;2972;4;140;363;21;3;49;1827;6;78;487;23;4;69;2493;3;71;198;19;5;272;6358;4;120;117;370;591;29;6;178;4722;4;119;93;456;425;29;7;100;2930;4;129;415;22;8;55;2941;4;75;256;13;9;12;1556;0;17;321;11
08.11.18;15:25:00;1;677;7990;0;2;168;2962;4;200;359;21;3;99;1823;4;137;489;24;4;124;2487;5;129;220;19;5;377;6335;4;181;169;381;591;29;6;249;4706;4;122;99;482;425;29;7;95;2922;4;115;252;13;8;120;2929;0;138;256;13;9;53;1555;4;71;292;11
08.11.18;15:20:00;1;665;7933;0;2;188;2949;4;219;366;22;3;103;1815;4;143;511;24;4;143;2477;5;149;224;20;5;421;6303;4;199;191;382;591;29;6;297;4685;4;177;130;555;425;29;7;119;2909;4;139;261;13;8;0;2899;0;0;0;0;9;106;1548;4;136;488;19
08.11.18;15:15:00;1;636;7878;0;2;191;2933;4;222;370;22;3;111;1806;4;147;494;24;4;155;2465;5;161;222;20;5;443;6268;4;208;193;391;604;29;6;309;4660;4;185;137;552;425;29;7;68;2882;0;79;152;7;8;173;2899;0;199;374;18;9;51;1539;4;64;240;9
08.11.18;15:10:00;1;482;7825;0;2;200;2917;4;236;376;22;3;120;1797;4;158;485;24;4;157;2453;5;163;220;20;5;463;6231;4;217;197;394;618;29;6;332;4634;4;193;163;548;482;29;7;155;2871;0;177;334;18;8;192;2886;4;227;442;22;9;63;1530;4;79;297;11
08.11.18;15:05:00;1;468;7785;0;2;248;2900;4;281;372;22;3;147;1787;4;185;502;24;4;197;2439;5;205;226;20;5;541;6192;4;268;240;394;617;29;6;403;4606;4;214;198;575;540;29;7;228;2859;4;268;453;23;8;236;2869;4;269;458;22;9;123;1521;4;153;509;19
08.11.18;15:00:00;1;411;7746;0;2;349;2880;4;389;388;22;3;212;1775;4;253;506;24;4;281;2423;5;292;230;20;5;697;6147;4;349;307;404;618;29;6;520;4573;4;279;262;576;551;29;7;272;2840;4;296;458;23;8;255;2849;4;299;463;22;9;118;1508;0;141;413;15
08.11.18;14:55:00;1;402;7712;0;2;464;2851;4;507;390;23;3;288;1757;4;331;499;24;4;397;2400;5;413;233;20;5;975;6085;4;490;430;407;632;29;6;742;4527;4;376;356;580;556;29;7;381;2818;4;424;461;23;8;390;2829;4;429;450;22;9;208;1499;4;241;502;19
08.11.18;14:50:00;1;402;7679;0;2;490;2812;4;532;394;23;3;301;1733;4;346;487;24;4;407;2367;5;424;234;20;5;1013;6003;4;508;437;411;656;29;6;765;4465;4;422;399;580;550;29;7;413;2786;4;457;458;23;8;420;2796;4;460;466;22;9;221;1482;4;255;495;20
08.11.18;14:45:00;1;416;7645;0;2;565;2771;4;608;397;23;3;350;1708;4;398;495;25;4;476;2333;5;496;235;20;5;1153;5918;4;576;504;414;648;29;6;878;4400;4;472;446;587;559;29;7;507;2752;4;546;453;23;8;508;2761;4;557;471;22;9;272;1464;4;309;507;20
08.11.18;14:40:00;1;440;7610;0;2;574;2724;4;619;400;23;3;361;1679;4;409;500;24;4;491;2293;5;511;235;20;5;1184;5821;4;602;518;417;665;29;6;900;4327;4;468;436;579;559;29;7;559;2709;4;598;471;23;8;562;2718;4;604;468;22;9;296;1441;4;337;520;20
08.11.18;14:35:00;1;447;7573;0;2;612;2677;4;656;398;23;3;385;1649;4;431;503;24;4;522;2252;5;544;234;20;5;1251;5723;4;632;545;418;662;29;6;961;4252;4;513;484;587;555;29;7;542;2663;4;578;396;19;8;659;2672;4;704;470;22;9;351;1416;4;393;520;20
08.11.18;14:30:00;1;419;7536;0;2;559;2626;4;603;389;22;3;354;1617;4;400;505;24;4;478;2209;5;497;237;20;5;1158;5618;4;588;502;412;664;29;6;880;4172;4;459;422;589;557;29;7;625;2609;4;666;477;23;8;645;2617;4;684;468;22;9;346;1387;4;388;512;19
08.11.18;14:25:00;1;355;7501;0;2;648;2579;4;695;401;22;3;407;1588;4;456;503;24;4;560;2169;5;583;238;20;5;1356;5524;4;692;593;417;675;29;6;1020;4100;4;551;507;591;560;29;7;685;2557;4;733;472;22;8;682;2563;4;726;465;22;9;364;1358;4;404;514;19
08.11.18;14:20:00;1;342;7471;0;2;407;2526;4;446;400;22;3;253;1554;4;298;501;24;4;356;2123;5;370;234;20;5;918;5410;4;459;400;407;668;29;6;698;4014;4;373;348;575;554;29;7;467;2501;4;502;460;23;8;476;2507;4;517;465;22;9;258;1328;4;295;513;19
08.11.18;14:15:00;1;335;7442;0;2;301;2490;4;338;382;22;3;185;1532;4;223;490;24;4;249;2092;5;260;229;20;5;677;5335;4;328;295;406;640;29;6;508;3957;4;256;248;554;544;29;7;303;2460;4;340;463;23;8;319;2466;4;349;458;22;9;171;1306;4;197;497;19
08.11.18;14:10:00;1;1619;7414;0;2;379;2465;4;415;394;22;3;233;1516;4;279;497;24;4;317;2071;5;330;230;20;5;823;5278;4;412;358;411;630;29;6;616;3914;4;336;307;579;543;29;7;393;2434;4;435;461;23;8;396;2439;4;438;463;22;9;212;1291;4;245;503;19
08.11.18;14:05:00;1;343;7264;0;2;434;2434;4;475;390;22;3;270;1497;4;313;499;24;4;359;2045;5;374;232;20;5;884;5210;4;441;388;407;633;29;6;643;3863;4;350;324;555;533;29;7;439;2402;4;474;461;23;8;433;2406;4;477;463;22;9;234;1274;4;268;515;19
08.11.18;14:00:00;1;344;7235;0;2;248;2398;4;283;378;22;3;153;1475;4;189;485;24;4;197;2015;5;205;225;20;5;537;5137;4;261;229;404;607;29;6;338;3810;4;188;161;457;425;29;7;257;2365;4;305;461;23;8;276;2371;4;315;458;22;9;150;1254;4;180;503;19
08.11.18;13:55:00;1;341;7206;0;2;186;2377;4;219;358;22;3;110;1462;4;146;498;24;4;141;1999;5;147;221;20;5;417;5094;4;195;194;370;591;29;6;274;3783;4;154;129;456;425;29;7;182;2342;4;209;441;23;8;169;2346;4;209;460;22;9;96;1241;4;123;478;19
08.11.18;13:50:00;1;357;7178;0;2;169;2361;4;199;366;22;3;94;1453;4;135;490;24;4;123;1987;5;128;217;20;5;375;5060;4;179;167;372;591;29;6;254;3760;4;138;119;477;444;29;7;163;2327;4;196;413;23;8;165;2333;4;200;441;22;9;86;1233;4;113;491;19
08.11.18;13:45:00;1;379;7148;0;2;407;2347;4;446;391;23;3;246;1445;4;289;514;25;4;342;1976;5;356;228;20;5;876;5028;4;440;382;404;644;29;6;651;3738;4;344;325;577;553;29;7;264;2313;4;295;383;19;8;350;2318;4;389;464;22;9;184;1226;4;214;514;19